Simultaneous Nadir Overpasses (SNOs) Predictions

Prediction of SNOs between AQUA and GOES-15 Satellite Orbit:

Table of predicted SNOs for the next 14.0 days since TLE Epoch: 8/19/2023
Index Date Time (AQUA) AQUA Lat,Lon GOES-15 Lat,Lon Distance(km) Time Diff (sec)
1 08/19/2023 04:34:05 -0.89, 139.73 -0.43, 141.83 239.03 80
2 08/21/2023 04:19:48 0.28, 143.15 -0.42, 139.78 383.45 80
3 08/21/2023 16:40:31 0.69, 138.12 0.43, 139.29 133.02 80
4 08/23/2023 16:26:14 -0.52, 141.54 0.42, 137.24 489.57 80
5 08/24/2023 04:47:05 -0.47, 136.48 -0.42, 136.66 21.48 80
6 08/26/2023 16:53:29 0.23, 134.87 0.41, 134.12 85.90 80
7 08/27/2023 05:14:20 -1.20, 129.80 -0.41, 133.55 425.87 80
8 08/29/2023 05:00:01 -0.02, 133.23 -0.40, 131.49 198.89 80
9 08/29/2023 17:20:43 1.02, 128.21 0.40, 130.98 315.95 80
10 08/31/2023 17:06:24 -0.20, 131.63 0.40, 128.91 310.07 80
11 09/01/2023 05:27:14 -0.80, 126.58 -0.40, 128.34 201.22 80
